Skip Page Navigation
NASA JPL Caltech
NASA Logo - Jet Propulsion Laboratory + View the NASA Portal
+ Center for Near-Earth Object Studies
JPL Home Earth Solar System Stars & Galaxies Technology
JPL Solar System Dynamics
BODIES ORBITS EPHEMERIDES TOOLS PHYSICAL DATA DISCOVERY FAQ SITE MAP
JPL Small-Body Database Browser
Search: [ help ]  
6497 Yamasaki (1992 UR3)
Classification: Main-belt Asteroid          SPK-ID: 2006497
Ephemeris | Orbit Diagram | Orbital Elements | Mission Design | Physical Parameters | Discovery Circumstances | Close-Approach Data ]

[ show orbit diagram ]
Orbital Elements at Epoch 2459000.5 (2020-May-31.0) TDB
Reference: JPL 30 (heliocentric ecliptic J2000)
 Element Value Uncertainty (1-sigma)   Units 
e .2153303132912851 4.3111e-08  
a 2.31435374139616 7.6304e-09 au
q 1.816003225194467 1.0208e-07 au
i 4.711107300204898 3.9932e-06 deg
node 234.0747778927899 4.4639e-05 deg
peri 121.5690393157722 4.5268e-05 deg
M 329.2039032881119 9.7798e-06 deg
tp 2459110.511025014853
(2020-Sep-18.01102501)
3.5279e-05 TDB
period 1286.006125252195
3.52
6.36e-06
1.741e-08
d
yr
n .279936458257072 1.3844e-09 deg/d
Q 2.812704257597852 9.2735e-09 au
  Orbit Determination Parameters
   # obs. used (total)      1795  
   data-arc span      24384 days (66.76 yr)  
   first obs. used      1953-09-06  
   last obs. used      2020-06-10  
   planetary ephem.      DE431  
   SB-pert. ephem.      SB431-N16  
   condition code      0  
   norm. resid. RMS      .51786  
   source      ORB  
   producer      Otto Matic  
   solution date      2020-Jun-23 16:31:46  

Additional Information
 Earth MOID = .817247 au 
 Jupiter MOID = 2.65688 au 
 T_jup = 3.546 
[ show covariance matrix ]

Ephemeris | Orbit Diagram | Orbital Elements | Mission Design | Physical Parameters | Discovery Circumstances | Close-Approach Data ]

Physical Parameter Table
Parameter Symbol Value Units Sigma Reference Notes
absolute magnitude H 14.0   n/a MPO279583  
diameter diameter 3.448 km 0.570 urn:nasa:pds:neowise_diameters_albedos::2.0[mainbelt] (http://adsabs.harvard.edu/abs/2015ApJ...814..117N)  
rotation period rot_per 9.879 h n/a LCDB (Rev. 2019-August); Warner et al., 2009 Published Reference List:
[Pray, D.P.; Kusnirak, P.; Galad, A.; Vilagi, J.; et al. (2007) Minor Planet Bull. 34, 44-46.]
geometric albedo albedo 0.390   0.143 urn:nasa:pds:neowise_diameters_albedos::2.0[mainbelt] (http://adsabs.harvard.edu/abs/2015ApJ...814..117N)  

6497 Yamasaki (1992 UR3)          Discovered 1992-Oct-27 by Seki, T. at Geisei
Reference: DISCOVERY.DBLast Updated: 2003-08-29

[ show close-approach data ]
Alternate Designations
 1992 UR3 = 1978 WZ18 = 1980 FT5 
Ephemeris | Orbit Diagram | Orbital Elements | Mission Design | Physical Parameters | Discovery Circumstances | Close-Approach Data ]
ABOUT SSD CREDITS/AWARDS PRIVACY/COPYRIGHT GLOSSARY LINKS
FirstGov 2020-Aug-15 18:01 UT
(server date/time)  
NASA Home Page
Site Manager:   Ryan S. Park
Webmaster  Alan B. Chamberlin